| time (UTC) | temp F | wind direction | speed knots | gust knots | rain 1hr in | rain 24hr in | rain mn in | humidity % | barometer mb |
| 20260510205037 | 61 | 219 | 0.9 | 7.8 | 0.00 | 0.04 | 0.04 | 51 | 1010.9 |
| 20260510204552 | 62 | 147 | 1.7 | 7.8 | 0.00 | 0.04 | 0.04 | 51 | 1010.9 |
| 20260510204036 | 61 | 340 | 2.6 | 7.8 | 0.00 | 0.04 | 0.04 | 52 | 1011.0 |
| 20260510203537 | 60 | 153 | 0.9 | 7.8 | 0.00 | 0.04 | 0.04 | 51 | 1010.9 |
| 20260510203047 | 61 | 205 | 1.7 | 7.8 | 0.00 | 0.04 | 0.04 | 49 | 1010.8 |
| 20260510202536 | 61 | 216 | 2.6 | 8.7 | 0.00 | 0.04 | 0.04 | 47 | 1010.8 |
| 20260510202036 | 61 | 205 | 2.6 | 12.2 | 0.00 | 0.04 | 0.04 | 46 | 1010.8 |
| 20260510201544 | 62 | 107 | 3.5 | 12.2 | 0.00 | 0.04 | 0.04 | 46 | 1010.7 |
| 20260510201038 | 62 | 200 | 1.7 | 10.4 | 0.00 | 0.04 | 0.04 | 46 | 1010.8 |
| 20260510200536 | 64 | 189 | 2.6 | 10.4 | 0.00 | 0.04 | 0.04 | 43 | 1010.7 |
| 20260510200045 | 64 | 169 | 2.6 | 10.4 | 0.00 | 0.04 | 0.04 | 51 | 1010.6 |
| 20260510195539 | 64 | 184 | 3.5 | 10.4 | 0.00 | 0.04 | 0.04 | 50 | 1010.8 |
| 20260510195037 | 64 | 194 | 3.5 | 10.4 | 0.00 | 0.04 | 0.04 | 46 | 1010.6 |
| 20260510194549 | 64 | 245 | 1.7 | 8.7 | 0.00 | 0.04 | 0.04 | 52 | 1010.7 |
| 20260510194036 | 63 | 34 | 2.6 | 8.7 | 0.00 | 0.04 | 0.04 | 46 | 1010.6 |
| 20260510193536 | 64 | 279 | 2.6 | 10.4 | 0.00 | 0.04 | 0.04 | 49 | 1010.6 |
| 20260510193049 | 64 | 355 | 3.5 | 10.4 | 0.00 | 0.04 | 0.04 | 51 | 1010.6 |
| 20260510192536 | 63 | 254 | 1.7 | 9.6 | 0.00 | 0.04 | 0.04 | 51 | 1010.6 |
| 20260510192036 | 63 | 288 | 3.5 | 9.6 | 0.00 | 0.04 | 0.04 | 48 | 1010.7 |
| 20260510191550 | 64 | 218 | 1.7 | 11.3 | 0.00 | 0.04 | 0.04 | 56 | 1010.7 |
| 20260510191036 | 63 | 234 | 2.6 | 11.3 | 0.00 | 0.04 | 0.04 | 54 | 1010.7 |
| 20260510190536 | 62 | 147 | 2.6 | 11.3 | 0.00 | 0.04 | 0.04 | 56 | 1010.6 |
| 20260510190043 | 62 | 222 | 2.6 | 11.3 | 0.00 | 0.04 | 0.04 | 59 | 1010.7 |
| 20260510185537 | 62 | 226 | 3.5 | 11.3 | 0.00 | 0.04 | 0.04 | 63 | 1010.7 |
| 20260510185037 | 61 | 160 | 2.6 | 8.7 | 0.00 | 0.04 | 0.04 | 74 | 1010.8 |
| 20260510184545 | 60 | 146 | 1.7 | 8.7 | 0.00 | 0.04 | 0.04 | 79 | 1010.8 |
| 20260510184039 | 60 | 149 | 2.6 | 8.7 | 0.00 | 0.04 | 0.04 | 80 | 1010.9 |
| 20260510183537 | 58 | 0 | 0.0 | 9.6 | 0.00 | 0.04 | 0.04 | 81 | 1010.9 |
| 20260510183047 | 57 | 279 | 0.9 | 9.6 | 0.00 | 0.04 | 0.04 | 83 | 1010.9 |
| 20260510182536 | 58 | 162 | 3.5 | 8.7 | 0.00 | 0.04 | 0.04 | 82 | 1010.9 |
| 20260510182036 | 59 | 198 | 1.7 | 7.8 | 0.00 | 0.04 | 0.04 | 86 | 1011.0 |
| 20260510181552 | 57 | 216 | 2.6 | 8.7 | 0.00 | 0.04 | 0.04 | 85 | 1011.0 |
| 20260510181036 | 56 | 123 | 1.7 | 9.6 | 0.00 | 0.04 | 0.04 | 84 | 1011.0 |
| 20260510180536 | 56 | 226 | 3.5 | 11.3 | 0.00 | 0.04 | 0.04 | 85 | 1011.0 |
| 20260510180053 | 56 | 157 | 2.6 | 11.3 | 0.00 | 0.04 | 0.04 | 85 | 1011.0 |
| 20260510175536 | 57 | 153 | 4.3 | 11.3 | 0.00 | 0.04 | 0.04 | 86 | 1011.0 |
| 20260510175037 | 55 | 288 | 3.5 | 8.7 | 0.00 | 0.04 | 0.04 | 86 | 1011.0 |
| 20260510174543 | 56 | 219 | 3.5 | 11.3 | 0.00 | 0.04 | 0.04 | 85 | 1011.3 |
| 20260510174037 | 56 | 220 | 1.7 | 11.3 | 0.00 | 0.04 | 0.04 | 84 | 1011.3 |
| 20260510173601 | 57 | 0 | 2.6 | 11.3 | 0.00 | 0.04 | 0.04 | 83 | 1011.3 |
| 20260510173041 | 56 | 229 | 2.6 | 8.7 | 0.00 | 0.04 | 0.04 | 85 | 1011.5 |
| 20260510172536 | 56 | 146 | 1.7 | 8.7 | 0.00 | 0.04 | 0.04 | 86 | 1011.4 |
| 20260510172039 | 56 | 0 | 2.6 | 6.1 | 0.00 | 0.04 | 0.04 | 87 | 1011.4 |
| 20260510171548 | 56 | 234 | 1.7 | 8.7 | 0.00 | 0.04 | 0.04 | 87 | 1011.6 |
| 20260510171036 | 56 | 214 | 1.7 | 8.7 | 0.00 | 0.04 | 0.04 | 88 | 1011.6 |
| 20260510170536 | 55 | 262 | 2.6 | 8.7 | 0.00 | 0.04 | 0.04 | 88 | 1011.6 |
| 20260510170050 | 55 | 200 | 0.9 | 10.4 | 0.00 | 0.04 | 0.04 | 88 | 1011.5 |
| 20260510165536 | 55 | 0 | 1.7 | 10.4 | 0.00 | 0.04 | 0.04 | 87 | 1011.4 |
| 20260510165037 | 55 | 223 | 3.5 | 10.4 | 0.00 | 0.04 | 0.04 | 88 | 1011.4 |
| 20260510164552 | 55 | 0 | 1.7 | 8.7 | 0.00 | 0.04 | 0.04 | 87 | 1011.5 |
| 20260510164036 | 55 | 208 | 1.7 | 8.7 | 0.00 | 0.04 | 0.04 | 88 | 1011.4 |
| 20260510163536 | 56 | 128 | 2.6 | 8.7 | 0.00 | 0.04 | 0.04 | 89 | 1011.4 |
| 20260510163044 | 54 | 142 | 1.7 | 6.1 | 0.00 | 0.04 | 0.04 | 91 | 1011.4 |
| 20260510162536 | 54 | 185 | 0.9 | 7.8 | 0.01 | 0.04 | 0.04 | 91 | 1011.4 |
| 20260510162036 | 53 | 0 | 0.9 | 7.8 | 0.02 | 0.04 | 0.04 | 90 | 1011.4 |
| 20260510161547 | 53 | 0 | 1.7 | 9.6 | 0.03 | 0.04 | 0.04 | 90 | 1011.3 |
| 20260510161037 | 53 | 156 | 1.7 | 9.6 | 0.03 | 0.04 | 0.04 | 91 | 1011.5 |
| 20260510160537 | 54 | 233 | 1.7 | 8.7 | 0.03 | 0.04 | 0.04 | 91 | 1011.5 |
| 20260510160042 | 54 | 124 | 1.7 | 8.7 | 0.03 | 0.04 | 0.04 | 92 | 1011.5 |
| 20260510155536 | 54 | 128 | 0.9 | 7.8 | 0.03 | 0.04 | 0.04 | 92 | 1011.5 |
| 20260510155036 | 53 | 272 | 1.7 | 7.8 | 0.03 | 0.04 | 0.04 | 92 | 1011.5 |
| 20260510154552 | 53 | 261 | 1.7 | 7.0 | 0.03 | 0.04 | 0.04 | 91 | 1011.4 |
| 20260510154041 | 53 | 183 | 1.7 | 5.2 | 0.03 | 0.04 | 0.04 | 91 | 1011.4 |
| 20260510153536 | 52 | 160 | 0.9 | 6.1 | 0.04 | 0.04 | 0.04 | 91 | 1011.4 |
| 20260510153045 | 52 | 162 | 0.9 | 6.1 | 0.04 | 0.04 | 0.04 | 89 | 1011.7 |
| 20260510152536 | 53 | 144 | 0.0 | 6.1 | 0.03 | 0.03 | 0.03 | 88 | 1011.8 |
| 20260510152037 | 54 | 153 | 0.9 | 6.1 | 0.02 | 0.02 | 0.02 | 85 | 1011.7 |
| 20260510151553 | 55 | 237 | 0.9 | 4.3 | 0.01 | 0.01 | 0.01 | 83 | 1011.6 |
| 20260510151036 | 55 | 0 | 0.9 | 4.3 | 0.01 | 0.01 | 0.01 | 84 | 1011.3 |
| 20260510150536 | 55 | 222 | 1.7 | 4.3 | 0.01 | 0.01 | 0.01 | 83 | 1011.3 |
| 20260510150047 | 55 | 0 | 0.9 | 7.8 | 0.01 | 0.01 | 0.01 | 82 | 1011.2 |
| 20260510145538 | 56 | 148 | 0.9 | 7.8 | 0.01 | 0.01 | 0.01 | 82 | 1011.3 |
| 20260510145035 | 56 | 169 | 0.9 | 4.3 | 0.01 | 0.01 | 0.01 | 82 | 1011.3 |
| 20260510144601 | 55 | 152 | 1.7 | 4.3 | 0.01 | 0.01 | 0.01 | 84 | 1011.2 |
| 20260510144036 | 54 | 0 | 0.9 | 9.6 | 0.01 | 0.01 | 0.01 | 84 | 1011.3 |
| 20260510143537 | 54 | 0 | 0.0 | 11.3 | 0.00 | 0.00 | 0.00 | 83 | 1011.4 |
| 20260510143056 | 54 | 137 | 2.6 | 11.3 | 0.00 | 0.00 | 0.00 | 83 | 1011.4 |
| 20260510142536 | 54 | 355 | 0.0 | 3.5 | 0.00 | 0.00 | 0.00 | 86 | 1011.3 |
| 20260510142039 | 53 | 0 | 0.9 | 5.2 | 0.00 | 0.00 | 0.00 | 85 | 1011.3 |
| 20260510141548 | 53 | 274 | 0.9 | 5.2 | 0.00 | 0.00 | 0.00 | 86 | 1011.3 |
| 20260510141036 | 53 | 0 | 0.9 | 3.5 | 0.00 | 0.00 | 0.00 | 86 | 1011.4 |
| 20260510140536 | 52 | 88 | 0.9 | 5.2 | 0.00 | 0.00 | 0.00 | 85 | 1011.3 |
| 20260510140049 | 52 | 0 | 1.7 | 5.2 | 0.00 | 0.00 | 0.00 | 85 | 1011.3 |
| 20260510135536 | 53 | 207 | 0.0 | 7.0 | 0.00 | 0.00 | 0.00 | 85 | 1011.3 |
| 20260510135036 | 53 | 0 | 1.7 | 7.0 | 0.00 | 0.00 | 0.00 | 84 | 1011.4 |
| 20260510134547 | 54 | 199 | 1.7 | 6.1 | 0.00 | 0.00 | 0.00 | 83 | 1011.2 |
| 20260510134036 | 55 | 155 | 0.9 | 4.3 | 0.00 | 0.00 | 0.00 | 84 | 1011.2 |
| 20260510133536 | 54 | 152 | 1.7 | 4.3 | 0.00 | 0.00 | 0.00 | 83 | 1011.1 |
| 20260510133048 | 54 | 195 | 1.7 | 4.3 | 0.00 | 0.00 | 0.00 | 83 | 1010.9 |
| 20260510132536 | 54 | 157 | 0.9 | 8.7 | 0.00 | 0.00 | 0.00 | 84 | 1010.8 |
| 20260510132038 | 54 | 340 | 1.7 | 9.6 | 0.00 | 0.00 | 0.00 | 84 | 1011.0 |
| 20260510131550 | 54 | 140 | 3.5 | 9.6 | 0.00 | 0.00 | 0.00 | 84 | 1011.2 |
| 20260510131039 | 54 | 265 | 1.7 | 9.6 | 0.00 | 0.00 | 0.00 | 83 | 1011.2 |
| 20260510130536 | 55 | 0 | 2.6 | 9.6 | 0.00 | 0.00 | 0.00 | 86 | 1011.3 |
| 20260510130048 | 54 | 159 | 1.7 | 7.0 | 0.00 | 0.00 | 0.00 | 84 | 1011.5 |
| 20260510125539 | 54 | 107 | 1.7 | 7.0 | 0.00 | 0.00 | 0.00 | 85 | 1011.2 |
| 20260510125036 | 52 | 143 | 0.9 | 6.1 | 0.00 | 0.00 | 0.00 | 87 | 1011.2 |
| 20260510124545 | 52 | 165 | 1.7 | 5.2 | 0.00 | 0.00 | 0.00 | 87 | 1011.2 |
| 20260510124037 | 51 | 0 | 0.0 | 5.2 | 0.00 | 0.00 | 0.00 | 89 | 1011.1 |
| 20260510123537 | 50 | 131 | 1.7 | 7.0 | 0.00 | 0.00 | 0.00 | 88 | 1011.2 |
| 20260510123051 | 51 | 165 | 0.0 | 7.0 | 0.00 | 0.00 | 0.00 | 88 | 1011.1 |
| 20260510122536 | 51 | 149 | 1.7 | 6.1 | 0.00 | 0.00 | 0.00 | 87 | 1011.1 |
| 20260510122036 | 51 | 157 | 1.7 | 7.8 | 0.00 | 0.00 | 0.00 | 88 | 1010.9 |
| 20260510121544 | 51 | 78 | 0.0 | 7.8 | 0.00 | 0.00 | 0.00 | 89 | 1011.0 |
| 20260510121036 | 51 | 117 | 0.9 | 8.7 | 0.00 | 0.00 | 0.00 | 89 | 1011.1 |
| 20260510120535 | 50 | 151 | 2.6 | 8.7 | 0.00 | 0.00 | 0.00 | 89 | 1011.1 |
| 20260510120046 | 50 | 247 | 1.7 | 7.0 | 0.00 | 0.00 | 0.00 | 90 | 1011.2 |
| 20260510115536 | 49 | 190 | 0.9 | 7.0 | 0.00 | 0.00 | 0.00 | 91 | 1011.1 |
| 20260510115036 | 49 | 132 | 0.9 | 6.1 | 0.00 | 0.00 | 0.00 | 91 | 1011.2 |
| 20260510114547 | 49 | 200 | 1.7 | 8.7 | 0.00 | 0.00 | 0.00 | 91 | 1011.2 |
| 20260510114035 | 49 | 0 | 0.9 | 8.7 | 0.00 | 0.00 | 0.00 | 91 | 1010.9 |
| 20260510113537 | 49 | 152 | 2.6 | 8.7 | 0.00 | 0.00 | 0.00 | 91 | 1011.0 |
| 20260510113053 | 49 | 0 | 0.9 | 7.8 | 0.00 | 0.00 | 0.00 | 91 | 1010.9 |
| 20260510112537 | 49 | 0 | 1.7 | 7.8 | 0.00 | 0.00 | 0.00 | 91 | 1010.8 |
| 20260510112037 | 49 | 186 | 0.9 | 7.8 | 0.00 | 0.00 | 0.00 | 91 | 1010.9 |
| 20260510111548 | 49 | 188 | 0.9 | 7.8 | 0.00 | 0.00 | 0.00 | 91 | 1010.7 |
| 20260510111037 | 48 | 254 | 0.0 | 7.0 | 0.00 | 0.00 | 0.00 | 91 | 1010.4 |
| 20260510110539 | 48 | 259 | 0.9 | 7.8 | 0.00 | 0.00 | 0.00 | 92 | 1010.3 |
| 20260510110051 | 48 | 0 | 1.7 | 7.8 | 0.00 | 0.00 | 0.00 | 92 | 1010.2 |
| 20260510105536 | 48 | 142 | 1.7 | 6.1 | 0.00 | 0.00 | 0.00 | 92 | 1010.2 |
| 20260510105036 | 48 | 0 | 0.9 | 5.2 | 0.00 | 0.00 | 0.00 | 92 | 1010.4 |
| 20260510104544 | 48 | 0 | 1.7 | 5.2 | 0.00 | 0.00 | 0.00 | 92 | 1010.5 |
| 20260510104038 | 48 | 183 | 0.9 | 6.1 | 0.00 | 0.00 | 0.00 | 92 | 1010.6 |
| 20260510103537 | 47 | 0 | 0.9 | 6.1 | 0.00 | 0.00 | 0.00 | 92 | 1010.6 |
| 20260510103052 | 47 | 176 | 0.9 | 6.1 | 0.00 | 0.00 | 0.00 | 92 | 1010.6 |
| 20260510102536 | 47 | 0 | 0.0 | 4.3 | 0.00 | 0.00 | 0.00 | 92 | 1010.4 |
| 20260510102035 | 47 | 159 | 0.9 | 7.0 | 0.00 | 0.00 | 0.00 | 92 | 1010.2 |
| 20260510101555 | 47 | 149 | 0.9 | 7.0 | 0.00 | 0.00 | 0.00 | 92 | 1010.2 |
| 20260510101035 | 47 | 0 | 0.9 | 8.7 | 0.00 | 0.00 | 0.00 | 92 | 1010.1 |
| 20260510100535 | 47 | 0 | 2.6 | 8.7 | 0.00 | 0.00 | 0.00 | 93 | 1010.0 |
| 20260510100055 | 47 | 155 | 0.0 | 5.2 | 0.00 | 0.00 | 0.00 | 93 | 1009.9 |
| 20260510095535 | 47 | 162 | 0.9 | 5.2 | 0.00 | 0.00 | 0.00 | 93 | 1009.8 |
| 20260510095036 | 46 | 112 | 0.0 | 5.2 | 0.00 | 0.00 | 0.00 | 93 | 1009.7 |
| 20260510094553 | 46 | 145 | 0.9 | 4.3 | 0.00 | 0.00 | 0.00 | 93 | 1009.8 |
| 20260510094035 | 46 | 169 | 0.0 | 3.5 | 0.00 | 0.00 | 0.00 | 93 | 1009.8 |
| 20260510093536 | 46 | 0 | 0.0 | 3.5 | 0.00 | 0.00 | 0.00 | 93 | 1009.9 |
| 20260510093047 | 46 | 0 | 0.0 | 3.5 | 0.00 | 0.00 | 0.00 | 93 | 1009.7 |
| 20260510092536 | 46 | 241 | 0.0 | 2.6 | 0.00 | 0.00 | 0.00 | 93 | 1009.6 |
| 20260510092037 | 46 | 0 | 0.0 | 3.5 | 0.00 | 0.00 | 0.00 | 93 | 1009.6 |
| 20260510091549 | 46 | 0 | 0.9 | 3.5 | 0.00 | 0.00 | 0.00 | 93 | 1009.5 |
| 20260510091036 | 46 | 0 | 0.0 | 0.9 | 0.00 | 0.00 | 0.00 | 93 | 1009.6 |
| 20260510090536 | 46 | 0 | 0.0 | 2.6 | 0.00 | 0.00 | 0.00 | 93 | 1009.8 |
| 20260510090043 | 46 | 0 | 0.0 | 4.3 | 0.00 | 0.00 | 0.00 | 93 | 1009.7 |
| 20260510085538 | 46 | 0 | 0.0 | 4.3 | 0.00 | 0.00 | 0.00 | 92 | 1009.6 |
| 20260510085035 | 46 | 0 | 0.0 | 1.7 | 0.00 | 0.00 | 0.00 | 92 | 1009.8 |
| 20260510084549 | 46 | 0 | 0.0 | 2.6 | 0.00 | 0.00 | 0.00 | 92 | 1009.8 |
| 20260510084036 | 46 | 0 | 0.0 | 4.3 | 0.00 | 0.00 | 0.00 | 92 | 1009.8 |
| 20260510083536 | 46 | 0 | 0.0 | 4.3 | 0.00 | 0.00 | 0.00 | 91 | 1010.0 |
| 20260510083051 | 46 | 0 | 0.0 | 4.3 | 0.00 | 0.00 | 0.00 | 91 | 1010.0 |
| 20260510082535 | 46 | 0 | 0.0 | 3.5 | 0.00 | 0.00 | 0.00 | 91 | 1010.0 |
| 20260510082037 | 46 | 0 | 0.0 | 4.3 | 0.00 | 0.00 | 0.00 | 91 | 1009.9 |
| 20260510081551 | 46 | 201 | 0.0 | 4.3 | 0.00 | 0.00 | 0.00 | 91 | 1010.0 |
| 20260510081039 | 46 | 0 | 0.0 | 6.1 | 0.00 | 0.00 | 0.00 | 91 | 1009.9 |
| 20260510080536 | 46 | 144 | 0.9 | 6.1 | 0.00 | 0.00 | 0.00 | 91 | 1009.7 |
| 20260510080054 | 46 | 132 | 0.9 | 6.1 | 0.00 | 0.00 | 0.00 | 91 | 1009.7 |
| 20260510075538 | 46 | 106 | 0.9 | 5.2 | 0.00 | 0.00 | 0.00 | 91 | 1009.7 |
| 20260510075036 | 46 | 180 | 0.9 | 5.2 | 0.00 | 0.00 | 0.00 | 91 | 1009.8 |
| 20260510074550 | 46 | 0 | 0.9 | 6.1 | 0.00 | 0.00 | 0.00 | 91 | 1009.9 |
| 20260510074037 | 46 | 0 | 1.7 | 6.1 | 0.00 | 0.00 | 0.00 | 91 | 1010.0 |
| 20260510073536 | 46 | 107 | 0.9 | 5.2 | 0.00 | 0.00 | 0.00 | 91 | 1010.1 |
| 20260510073103 | 46 | 0 | 0.0 | 7.8 | 0.00 | 0.00 | 0.00 | 91 | 1010.1 |
| 20260510072536 | 46 | 0 | 0.9 | 7.8 | 0.00 | 0.00 | 0.00 | 91 | 1010.0 |
| 20260510072036 | 46 | 188 | 1.7 | 7.8 | 0.00 | 0.00 | 0.00 | 91 | 1010.0 |
| 20260510071543 | 46 | 0 | 0.9 | 7.8 | 0.00 | 0.00 | 0.00 | 91 | 1010.0 |
| 20260510071037 | 46 | 0 | 0.9 | 7.8 | 0.00 | 0.00 | 0.00 | 91 | 1010.1 |
| 20260510070535 | 46 | 111 | 1.7 | 7.8 | 0.00 | 0.00 | 0.00 | 91 | 1010.1 |
| 20260510070043 | 46 | 173 | 0.9 | 8.7 | 0.00 | 0.00 | 0.00 | 91 | 1010.0 |
| 20260510065536 | 46 | 171 | 0.9 | 8.7 | 0.00 | 0.00 | 0.00 | 91 | 1010.0 |
| 20260510065036 | 46 | 154 | 1.7 | 9.6 | 0.00 | 0.00 | 0.00 | 91 | 1010.0 |
| 20260510064611 | 46 | 155 | 1.7 | 9.6 | 0.00 | 0.00 | 0.00 | 91 | 1010.0 |
| 20260510064036 | 46 | 288 | 0.9 | 6.1 | 0.00 | 0.00 | 0.00 | 91 | 1010.1 |
| 20260510063536 | 46 | 215 | 0.9 | 6.1 | 0.00 | 0.00 | 0.00 | 91 | 1010.0 |
| 20260510063045 | 46 | 252 | 0.9 | 6.1 | 0.00 | 0.00 | 0.00 | 91 | 1010.0 |
| 20260510062535 | 45 | 0 | 0.0 | 5.2 | 0.00 | 0.00 | 0.00 | 91 | 1010.1 |
| 20260510062036 | 45 | 0 | 0.0 | 5.2 | 0.00 | 0.00 | 0.00 | 91 | 1010.1 |
| 20260510061547 | 46 | 228 | 0.0 | 6.1 | 0.00 | 0.00 | 0.00 | 91 | 1010.1 |
| 20260510061038 | 46 | 0 | 0.9 | 6.1 | 0.00 | 0.00 | 0.00 | 91 | 1010.1 |
| 20260510060539 | 46 | 255 | 1.7 | 6.1 | 0.00 | 0.00 | 0.00 | 91 | 1010.1 |
| 20260510060050 | 46 | 267 | 0.0 | 7.0 | 0.00 | 0.00 | 0.00 | 91 | 1010.1 |
| 20260510055540 | 46 | 89 | 1.7 | 7.0 | 0.00 | 0.00 | 0.00 | 91 | 1010.0 |
| 20260510055039 | 46 | 0 | 0.9 | 7.0 | 0.00 | 0.00 | 0.00 | 91 | 1010.1 |
| 20260510054547 | 46 | 157 | 0.9 | 6.1 | 0.00 | 0.00 | 0.00 | 91 | 1010.2 |
| 20260510054035 | 46 | 194 | 0.0 | 5.2 | 0.00 | 0.00 | 0.00 | 91 | 1010.3 |
| 20260510053536 | 46 | 157 | 0.0 | 7.8 | 0.00 | 0.00 | 0.00 | 91 | 1010.3 |
| 20260510053048 | 46 | 0 | 0.0 | 7.8 | 0.00 | 0.00 | 0.00 | 90 | 1010.3 |
| 20260510052540 | 46 | 136 | 1.7 | 6.1 | 0.00 | 0.00 | 0.00 | 90 | 1010.3 |
| 20260510052037 | 46 | 197 | 0.9 | 6.1 | 0.00 | 0.00 | 0.00 | 90 | 1010.5 |
| 20260510051553 | 46 | 178 | 0.9 | 6.1 | 0.00 | 0.00 | 0.00 | 90 | 1010.6 |
| 20260510051038 | 46 | 0 | 1.7 | 6.1 | 0.00 | 0.00 | 0.00 | 90 | 1010.5 |
| 20260510050535 | 46 | 228 | 0.0 | 7.8 | 0.00 | 0.00 | 0.00 | 90 | 1010.5 |
| 20260510050047 | 46 | 223 | 1.7 | 7.8 | 0.00 | 0.00 | 0.00 | 90 | 1010.4 |
| 20260510045539 | 46 | 143 | 0.9 | 5.2 | 0.00 | 0.00 | 0.00 | 89 | 1010.4 |
| 20260510045035 | 46 | 243 | 0.9 | 6.1 | 0.00 | 0.00 | 0.00 | 89 | 1010.3 |
| 20260510044544 | 46 | 153 | 0.9 | 7.0 | 0.00 | 0.00 | 0.00 | 89 | 1010.2 |
| 20260510044036 | 46 | 0 | 0.9 | 7.0 | 0.00 | 0.00 | 0.00 | 89 | 1010.1 |
| 20260510043535 | 46 | 88 | 1.7 | 7.0 | 0.00 | 0.00 | 0.00 | 89 | 1010.1 |
| 20260510043044 | 46 | 155 | 0.9 | 6.1 | 0.00 | 0.00 | 0.00 | 89 | 1010.2 |
| 20260510042539 | 46 | 0 | 0.9 | 6.1 | 0.00 | 0.00 | 0.00 | 89 | 1010.2 |
| 20260510042036 | 46 | 118 | 0.0 | 8.7 | 0.00 | 0.00 | 0.00 | 89 | 1010.3 |
| 20260510041543 | 46 | 0 | 2.6 | 9.6 | 0.00 | 0.00 | 0.00 | 89 | 1010.4 |
| 20260510041036 | 46 | 175 | 3.5 | 9.6 | 0.00 | 0.00 | 0.00 | 89 | 1010.7 |
| 20260510040536 | 46 | 5 | 1.7 | 7.0 | 0.00 | 0.00 | 0.00 | 89 | 1010.7 |
| 20260510040050 | 46 | 127 | 0.0 | 7.0 | 0.00 | 0.00 | 0.00 | 89 | 1010.7 |
| 20260510035535 | 46 | 132 | 2.6 | 7.0 | 0.00 | 0.00 | 0.00 | 88 | 1010.6 |
| 20260510035039 | 46 | 0 | 0.0 | 7.0 | 0.00 | 0.00 | 0.00 | 88 | 1010.5 |
| 20260510034606 | 46 | 0 | 1.7 | 7.0 | 0.00 | 0.00 | 0.00 | 88 | 1010.3 |
| 20260510034036 | 46 | 176 | 0.9 | 6.1 | 0.00 | 0.00 | 0.00 | 88 | 1010.3 |
| 20260510033538 | 46 | 136 | 1.7 | 6.1 | 0.00 | 0.00 | 0.00 | 88 | 1010.6 |
| 20260510033056 | 46 | 94 | 1.7 | 7.0 | 0.00 | 0.00 | 0.00 | 88 | 1010.7 |
| 20260510032536 | 46 | 135 | 0.0 | 7.8 | 0.00 | 0.00 | 0.00 | 88 | 1010.7 |
| 20260510032035 | 46 | 171 | 1.7 | 7.8 | 0.00 | 0.00 | 0.00 | 88 | 1010.7 |
| 20260510031544 | 46 | 0 | 0.9 | 4.3 | 0.00 | 0.00 | 0.00 | 88 | 1010.8 |
| 20260510031036 | 46 | 0 | 0.0 | 7.8 | 0.00 | 0.00 | 0.00 | 88 | 1010.7 |
| 20260510030536 | 46 | 123 | 1.7 | 7.8 | 0.00 | 0.00 | 0.00 | 88 | 1010.7 |
| 20260510030046 | 46 | 123 | 0.0 | 7.8 | 0.00 | 0.00 | 0.00 | 88 | 1010.7 |
| 20260510025536 | 46 | 139 | 0.9 | 5.2 | 0.00 | 0.00 | 0.00 | 88 | 1010.7 |
| 20260510025036 | 46 | 0 | 0.0 | 4.3 | 0.00 | 0.00 | 0.00 | 87 | 1010.7 |
| 20260510024545 | 46 | 0 | 0.9 | 4.3 | 0.00 | 0.00 | 0.00 | 87 | 1010.7 |
| 20260510024038 | 46 | 0 | 0.0 | 6.1 | 0.00 | 0.00 | 0.00 | 87 | 1010.8 |
| 20260510023535 | 46 | 0 | 0.9 | 6.1 | 0.00 | 0.00 | 0.00 | 87 | 1010.8 |
| 20260510023045 | 46 | 157 | 0.0 | 6.1 | 0.00 | 0.00 | 0.00 | 87 | 1010.8 |
| 20260510022536 | 46 | 242 | 0.9 | 6.1 | 0.00 | 0.00 | 0.00 | 87 | 1010.8 |
| 20260510022036 | 46 | 0 | 0.0 | 3.5 | 0.00 | 0.00 | 0.00 | 87 | 1010.9 |
| 20260510021555 | 46 | 0 | 0.0 | 3.5 | 0.00 | 0.00 | 0.00 | 87 | 1010.8 |
| 20260510021035 | 46 | 310 | 0.9 | 3.5 | 0.00 | 0.00 | 0.00 | 87 | 1010.9 |
| 20260510020535 | 46 | 0 | 0.0 | 4.3 | 0.00 | 0.00 | 0.00 | 87 | 1010.7 |
| 20260510020048 | 46 | 0 | 0.0 | 4.3 | 0.00 | 0.00 | 0.00 | 87 | 1010.8 |
| 20260510015536 | 46 | 131 | 0.9 | 6.1 | 0.00 | 0.00 | 0.00 | 87 | 1010.9 |
| 20260510015035 | 46 | 0 | 0.9 | 6.1 | 0.00 | 0.00 | 0.00 | 87 | 1010.9 |
| 20260510014553 | 46 | 149 | 0.9 | 5.2 | 0.00 | 0.00 | 0.00 | 87 | 1010.9 |
| 20260510014035 | 46 | 0 | 0.9 | 4.3 | 0.00 | 0.00 | 0.00 | 87 | 1011.1 |
| 20260510013536 | 46 | 0 | 0.0 | 3.5 | 0.00 | 0.00 | 0.00 | 87 | 1011.2 |
| 20260510013058 | 46 | 236 | 0.0 | 3.5 | 0.00 | 0.00 | 0.00 | 87 | 1011.2 |
| 20260510012538 | 46 | 0 | 0.0 | 5.2 | 0.00 | 0.00 | 0.00 | 87 | 1011.3 |
| 20260510012036 | 46 | 193 | 0.0 | 5.2 | 0.00 | 0.00 | 0.00 | 87 | 1011.3 |
| 20260510011546 | 46 | 169 | 0.9 | 4.3 | 0.00 | 0.00 | 0.00 | 87 | 1011.3 |
| 20260510011036 | 46 | 0 | 0.0 | 6.1 | 0.00 | 0.00 | 0.00 | 87 | 1011.2 |
| 20260510010535 | 46 | 0 | 0.0 | 6.1 | 0.00 | 0.00 | 0.00 | 87 | 1011.2 |
| 20260510010047 | 46 | 153 | 0.9 | 6.1 | 0.00 | 0.00 | 0.00 | 86 | 1011.2 |
| 20260510005536 | 46 | 0 | 0.0 | 3.5 | 0.00 | 0.00 | 0.00 | 86 | 1011.1 |
| 20260510005036 | 46 | 228 | 0.0 | 3.5 | 0.00 | 0.00 | 0.00 | 86 | 1011.1 |
| 20260510004546 | 46 | 252 | 0.0 | 4.3 | 0.00 | 0.00 | 0.00 | 86 | 1011.0 |
| 20260510004035 | 46 | 0 | 0.0 | 6.1 | 0.00 | 0.00 | 0.00 | 86 | 1010.9 |
| 20260510003535 | 46 | 148 | 0.9 | 6.1 | 0.00 | 0.00 | 0.00 | 86 | 1010.9 |
| 20260510003101 | 46 | 142 | 0.0 | 6.1 | 0.00 | 0.00 | 0.00 | 86 | 1011.0 |
| 20260510002536 | 46 | 0 | 1.7 | 6.1 | 0.00 | 0.00 | 0.00 | 86 | 1011.0 |
| 20260510002035 | 46 | 161 | 0.0 | 6.1 | 0.00 | 0.00 | 0.00 | 86 | 1010.9 |
| 20260510001544 | 46 | 244 | 0.9 | 6.1 | 0.00 | 0.00 | 0.00 | 86 | 1010.8 |
| 20260510001038 | 46 | 0 | 1.7 | 6.1 | 0.00 | 0.00 | 0.00 | 85 | 1010.8 |
| 20260510000537 | 46 | 204 | 0.9 | 6.1 | 0.00 | 0.00 | 0.00 | 85 | 1010.8 |
| 20260510000059 | 46 | 160 | 0.9 | 5.2 | 0.00 | 0.00 | 0.00 | 85 | 1010.8 |
| 20260509235536 | 46 | 153 | 0.0 | 3.5 | 0.00 | 0.00 | 0.00 | 85 | 1010.7 |
| 20260509235036 | 46 | 168 | 0.9 | 3.5 | 0.00 | 0.00 | 0.00 | 85 | 1010.7 |
| 20260509234547 | 46 | 150 | 0.0 | 1.7 | 0.00 | 0.00 | 0.00 | 85 | 1010.7 |
| 20260509234036 | 46 | 0 | 0.0 | 2.6 | 0.00 | 0.00 | 0.00 | 85 | 1010.8 |
| 20260509233536 | 46 | 0 | 0.0 | 2.6 | 0.00 | 0.00 | 0.00 | 85 | 1010.8 |
| 20260509233047 | 46 | 0 | 0.0 | 2.6 | 0.00 | 0.00 | 0.00 | 84 | 1010.8 |
| 20260509232535 | 46 | 0 | 0.0 | 2.6 | 0.00 | 0.00 | 0.00 | 84 | 1010.8 |
| 20260509232037 | 46 | 0 | 0.0 | 2.6 | 0.00 | 0.00 | 0.00 | 84 | 1010.8 |
| 20260509231545 | 46 | 0 | 0.0 | 2.6 | 0.00 | 0.00 | 0.00 | 84 | 1010.8 |
| 20260509231035 | 46 | 0 | 0.0 | 3.5 | 0.00 | 0.00 | 0.00 | 83 | 1010.8 |
| 20260509230535 | 46 | 0 | 0.0 | 3.5 | 0.00 | 0.00 | 0.00 | 83 | 1010.7 |
| 20260509230046 | 46 | 0 | 0.0 | 2.6 | 0.00 | 0.00 | 0.00 | 83 | 1010.8 |
| 20260509225535 | 46 | 0 | 0.9 | 2.6 | 0.00 | 0.00 | 0.00 | 83 | 1010.8 |
| 20260509225035 | 47 | 0 | 0.0 | 4.3 | 0.00 | 0.00 | 0.00 | 83 | 1010.8 |
| 20260509224543 | 47 | 0 | 0.0 | 4.3 | 0.00 | 0.00 | 0.00 | 83 | 1010.9 |
| 20260509224035 | 47 | 194 | 0.0 | 2.6 | 0.00 | 0.00 | 0.00 | 82 | 1010.9 |
| 20260509223535 | 47 | 0 | 0.0 | 2.6 | 0.00 | 0.00 | 0.00 | 82 | 1010.9 |
| 20260509223046 | 47 | 0 | 0.0 | 2.6 | 0.00 | 0.00 | 0.00 | 81 | 1011.0 |
| 20260509222534 | 47 | 0 | 0.0 | 2.6 | 0.00 | 0.00 | 0.00 | 81 | 1010.9 |
| 20260509222037 | 47 | 255 | 0.0 | 1.7 | 0.00 | 0.00 | 0.00 | 81 | 1011.0 |
| 20260509221546 | 47 | 0 | 0.0 | 1.7 | 0.00 | 0.00 | 0.00 | 81 | 1011.0 |
| 20260509221035 | 47 | 0 | 0.0 | 0.0 | 0.00 | 0.00 | 0.00 | 80 | 1011.0 |
| 20260509220536 | 47 | 0 | 0.0 | 1.7 | 0.00 | 0.00 | 0.00 | 79 | 1011.0 |
| 20260509220048 | 47 | 0 | 0.0 | 4.3 | 0.00 | 0.00 | 0.00 | 78 | 1011.0 |
| 20260509215536 | 47 | 0 | 0.0 | 4.3 | 0.00 | 0.00 | 0.00 | 78 | 1011.0 |
| 20260509215037 | 47 | 0 | 0.9 | 5.2 | 0.00 | 0.00 | 0.00 | 78 | 1011.1 |
| 20260509214558 | 47 | 0 | 0.9 | 5.2 | 0.00 | 0.00 | 0.00 | 77 | 1011.2 |
| 20260509214035 | 47 | 121 | 0.0 | 5.2 | 0.00 | 0.00 | 0.00 | 77 | 1011.3 |
| 20260509213535 | 47 | 0 | 0.9 | 4.3 | 0.00 | 0.00 | 0.00 | 77 | 1011.3 |
| 20260509213045 | 47 | 0 | 0.0 | 7.0 | 0.00 | 0.00 | 0.00 | 77 | 1011.3 |
| 20260509212538 | 47 | 211 | 0.0 | 7.0 | 0.00 | 0.00 | 0.00 | 77 | 1011.3 |
| 20260509212035 | 47 | 126 | 1.7 | 7.0 | 0.00 | 0.00 | 0.00 | 77 | 1011.4 |
| 20260509211548 | 47 | 102 | 0.0 | 2.6 | 0.00 | 0.00 | 0.00 | 77 | 1011.3 |
| 20260509211035 | 48 | 91 | 0.0 | 2.6 | 0.00 | 0.00 | 0.00 | 77 | 1011.4 |
| 20260509210535 | 47 | 0 | 0.0 | 4.3 | 0.00 | 0.00 | 0.00 | 77 | 1011.3 |
| 20260509210048 | 48 | 134 | 0.9 | 4.3 | 0.00 | 0.00 | 0.00 | 78 | 1011.3 |
| 20260509205534 | 48 | 0 | 0.0 | 5.2 | 0.00 | 0.00 | 0.00 | 78 | 1011.4 |